| time (UTC) | temp C | wind direction | speed KPH | gust KPH | rain 1hr cm | rain 24hr cm | rain mn cm | humidity % | barometer mb |
| 20260506010905 | 11 | 6 | 4.8 | 14.5 | 0.00 | 0.00 | 0.00 | 75 | 1011.4 |
| 20260506010026 | 11 | 1 | 4.8 | 16.1 | 0.00 | 0.00 | 0.00 | 75 | 1011.4 |
| 20260506005406 | 11 | 10 | 4.8 | 12.9 | 0.00 | 0.00 | 0.00 | 75 | 1011.4 |
| 20260506004505 | 11 | 353 | 3.2 | 9.7 | 0.00 | 0.00 | 0.00 | 74 | 1011.4 |
| 20260506003605 | 11 | 359 | 4.8 | 12.9 | 0.00 | 0.00 | 0.00 | 74 | 1011.4 |
| 20260506002705 | 11 | 13 | 4.8 | 11.3 | 0.00 | 0.00 | 0.00 | 74 | 1011.5 |
| 20260506001829 | 11 | 9 | 3.2 | 8.0 | 0.00 | 0.00 | 0.00 | 74 | 1011.5 |
| 20260506000906 | 11 | 354 | 3.2 | 9.7 | 0.00 | 0.00 | 0.00 | 74 | 1011.6 |
| 20260506000005 | 11 | 354 | 4.8 | 11.3 | 0.00 | 0.00 | 0.00 | 74 | 1011.4 |
| 20260505235407 | 11 | 342 | 4.8 | 12.9 | 0.00 | 0.00 | 0.00 | 74 | 1011.4 |
| 20260505234505 | 11 | 347 | 4.8 | 14.5 | 0.00 | 0.00 | 0.00 | 74 | 1011.4 |
| 20260505233606 | 11 | 345 | 4.8 | 14.5 | 0.00 | 0.00 | 0.00 | 74 | 1011.5 |
| 20260505232705 | 11 | 337 | 6.4 | 17.7 | 0.00 | 0.00 | 0.00 | 74 | 1011.5 |
| 20260505231805 | 11 | 344 | 6.4 | 14.5 | 0.00 | 0.00 | 0.00 | 74 | 1011.5 |
| 20260505230906 | 11 | 340 | 6.4 | 19.3 | 0.00 | 0.00 | 0.00 | 73 | 1011.6 |
| 20260505230005 | 11 | 346 | 6.4 | 14.5 | 0.00 | 0.00 | 0.00 | 73 | 1011.7 |
| 20260505225405 | 11 | 342 | 6.4 | 17.7 | 0.00 | 0.00 | 0.00 | 73 | 1011.6 |
| 20260505224505 | 11 | 347 | 6.4 | 14.5 | 0.00 | 0.00 | 0.00 | 73 | 1011.6 |
| 20260505223606 | 11 | 343 | 6.4 | 14.5 | 0.00 | 0.00 | 0.00 | 73 | 1011.6 |
| 20260505222727 | 11 | 350 | 6.4 | 17.7 | 0.00 | 0.00 | 0.00 | 73 | 1011.6 |
| 20260505221806 | 12 | 355 | 6.4 | 14.5 | 0.00 | 0.00 | 0.00 | 73 | 1011.7 |
| 20260505220906 | 12 | 349 | 8.0 | 19.3 | 0.00 | 0.00 | 0.00 | 72 | 1011.7 |
| 20260505220006 | 12 | 350 | 6.4 | 16.1 | 0.00 | 0.00 | 0.00 | 72 | 1011.7 |
| 20260505215426 | 12 | 350 | 6.4 | 16.1 | 0.00 | 0.00 | 0.00 | 72 | 1011.6 |
| 20260505214526 | 12 | 346 | 4.8 | 14.5 | 0.00 | 0.00 | 0.00 | 72 | 1011.7 |
| 20260505213605 | 12 | 354 | 4.8 | 16.1 | 0.00 | 0.00 | 0.00 | 72 | 1011.7 |
| 20260505212706 | 12 | 352 | 4.8 | 12.9 | 0.00 | 0.00 | 0.00 | 71 | 1011.7 |
| 20260505211806 | 12 | 352 | 4.8 | 9.7 | 0.00 | 0.00 | 0.00 | 71 | 1011.6 |
| 20260505210906 | 12 | 347 | 4.8 | 12.9 | 0.00 | 0.00 | 0.00 | 70 | 1011.6 |
| 20260505210006 | 12 | 340 | 6.4 | 12.9 | 0.00 | 0.00 | 0.00 | 70 | 1011.6 |
| 20260505205426 | 12 | 342 | 6.4 | 12.9 | 0.00 | 0.00 | 0.00 | 69 | 1011.6 |
| 20260505204505 | 13 | 340 | 6.4 | 16.1 | 0.00 | 0.00 | 0.00 | 68 | 1011.6 |
| 20260505203605 | 13 | 340 | 4.8 | 16.1 | 0.00 | 0.00 | 0.00 | 68 | 1011.6 |
| 20260505202706 | 13 | 332 | 6.4 | 16.1 | 0.00 | 0.00 | 0.00 | 67 | 1011.6 |
| 20260505201806 | 13 | 325 | 4.8 | 14.5 | 0.00 | 0.00 | 0.00 | 66 | 1011.5 |
| 20260505200906 | 14 | 328 | 4.8 | 12.9 | 0.00 | 0.00 | 0.00 | 65 | 1011.4 |
| 20260505200005 | 14 | 1 | 4.8 | 12.9 | 0.00 | 0.00 | 0.00 | 64 | 1011.3 |
| 20260505195406 | 14 | 360 | 3.2 | 11.3 | 0.00 | 0.00 | 0.00 | 64 | 1011.2 |
| 20260505194506 | 14 | 358 | 4.8 | 14.5 | 0.00 | 0.00 | 0.00 | 64 | 1011.2 |
| 20260505193605 | 14 | 19 | 4.8 | 16.1 | 0.00 | 0.00 | 0.00 | 64 | 1011.1 |
| 20260505192706 | 14 | 19 | 4.8 | 12.9 | 0.00 | 0.00 | 0.00 | 64 | 1011.0 |
| 20260505191826 | 15 | 15 | 6.4 | 12.9 | 0.00 | 0.00 | 0.00 | 64 | 1011.0 |
| 20260505190904 | 15 | 30 | 4.8 | 14.5 | 0.00 | 0.00 | 0.00 | 64 | 1011.0 |
| 20260505190006 | 15 | 18 | 3.2 | 14.5 | 0.00 | 0.00 | 0.00 | 64 | 1010.9 |
| 20260505185404 | 15 | 20 | 3.2 | 6.4 | 0.00 | 0.00 | 0.00 | 64 | 1010.9 |
| 20260505184505 | 15 | 28 | 3.2 | 11.3 | 0.00 | 0.00 | 0.00 | 63 | 1010.8 |
| 20260505183605 | 15 | 38 | 3.2 | 8.0 | 0.00 | 0.00 | 0.00 | 63 | 1010.8 |
| 20260505182704 | 15 | 36 | 4.8 | 14.5 | 0.00 | 0.00 | 0.00 | 63 | 1010.7 |
| 20260505181804 | 15 | 45 | 4.8 | 12.9 | 0.00 | 0.00 | 0.00 | 62 | 1010.6 |
| 20260505180905 | 15 | 36 | 4.8 | 12.9 | 0.00 | 0.00 | 0.00 | 62 | 1010.7 |
| 20260505180004 | 16 | 34 | 4.8 | 12.9 | 0.00 | 0.00 | 0.00 | 62 | 1010.7 |
| 20260505175425 | 16 | 31 | 6.4 | 12.9 | 0.00 | 0.00 | 0.00 | 62 | 1010.6 |
| 20260505174525 | 16 | 40 | 6.4 | 12.9 | 0.00 | 0.00 | 0.00 | 61 | 1010.6 |
| 20260505173604 | 16 | 33 | 6.4 | 16.1 | 0.00 | 0.00 | 0.00 | 60 | 1010.6 |
| 20260505172706 | 16 | 40 | 4.8 | 16.1 | 0.00 | 0.00 | 0.00 | 60 | 1010.7 |
| 20260505171805 | 16 | 39 | 6.4 | 14.5 | 0.00 | 0.00 | 0.00 | 60 | 1010.8 |
| 20260505170905 | 16 | 36 | 4.8 | 12.9 | 0.00 | 0.00 | 0.00 | 59 | 1010.8 |
| 20260505170006 | 16 | 14 | 6.4 | 14.5 | 0.00 | 0.00 | 0.00 | 59 | 1010.9 |
| 20260505165404 | 16 | 28 | 6.4 | 16.1 | 0.00 | 0.00 | 0.00 | 59 | 1010.9 |
| 20260505164505 | 16 | 40 | 6.4 | 16.1 | 0.00 | 0.00 | 0.00 | 59 | 1010.9 |
| 20260505163606 | 16 | 36 | 9.7 | 19.3 | 0.00 | 0.00 | 0.00 | 59 | 1010.9 |
| 20260505162704 | 16 | 37 | 9.7 | 19.3 | 0.00 | 0.00 | 0.00 | 59 | 1010.8 |
| 20260505161805 | 16 | 31 | 8.0 | 17.7 | 0.00 | 0.00 | 0.00 | 60 | 1010.9 |
| 20260505160904 | 16 | 16 | 8.0 | 17.7 | 0.00 | 0.00 | 0.00 | 60 | 1010.9 |
| 20260505152705 | 16 | 20 | 8.0 | 17.7 | 0.00 | 0.00 | 0.00 | 61 | 1011.0 |
| 20260505151805 | 16 | 15 | 8.0 | 17.7 | 0.00 | 0.00 | 0.00 | 61 | 1011.0 |
| 20260505150905 | 16 | 29 | 9.7 | 17.7 | 0.00 | 0.00 | 0.00 | 60 | 1011.0 |
| 20260505124505 | 17 | 347 | 11.3 | 24.1 | 0.00 | 0.00 | 0.00 | 56 | 1011.3 |
| 20260505123605 | 17 | 347 | 9.7 | 20.9 | 0.00 | 0.00 | 0.00 | 58 | 1011.2 |
| 20260505122705 | 17 | 17 | 9.7 | 22.5 | 0.00 | 0.00 | 0.00 | 58 | 1011.4 |
| 20260505121805 | 17 | 29 | 11.3 | 24.1 | 0.00 | 0.00 | 0.00 | 56 | 1011.4 |
| 20260505120904 | 18 | 36 | 11.3 | 20.9 | 0.00 | 0.00 | 0.00 | 58 | 1011.4 |
| 20260505120005 | 18 | 35 | 9.7 | 24.1 | 0.00 | 0.00 | 0.00 | 59 | 1011.4 |
| 20260505115405 | 17 | 9 | 9.7 | 24.1 | 0.00 | 0.00 | 0.00 | 62 | 1011.3 |
| 20260505114525 | 17 | 25 | 8.0 | 19.3 | 0.00 | 0.00 | 0.00 | 61 | 1011.4 |
| 20260505113604 | 17 | 42 | 8.0 | 17.7 | 0.00 | 0.00 | 0.00 | 62 | 1011.4 |
| 20260505112703 | 17 | 359 | 8.0 | 20.9 | 0.00 | 0.00 | 0.00 | 64 | 1011.6 |
| 20260505111805 | 16 | 12 | 9.7 | 24.1 | 0.00 | 0.00 | 0.00 | 64 | 1011.6 |
| 20260505110904 | 17 | 35 | 11.3 | 20.9 | 0.00 | 0.00 | 0.00 | 63 | 1011.7 |
| 20260505101805 | 15 | 5 | 11.3 | 22.5 | 0.00 | 0.00 | 0.00 | 67 | 1012.0 |
| 20260505100904 | 16 | 11 | 9.7 | 20.9 | 0.00 | 0.00 | 0.00 | 66 | 1012.0 |
| 20260505100025 | 16 | 21 | 8.0 | 17.7 | 0.00 | 0.00 | 0.00 | 68 | 1012.1 |
| 20260505095403 | 16 | 22 | 9.7 | 20.9 | 0.00 | 0.00 | 0.00 | 68 | 1011.9 |
| 20260505094503 | 16 | 24 | 9.7 | 24.1 | 0.00 | 0.00 | 0.00 | 70 | 1012.0 |
| 20260505093624 | 15 | 24 | 9.7 | 19.3 | 0.00 | 0.00 | 0.00 | 72 | 1012.2 |
| 20260505092704 | 15 | 23 | 11.3 | 22.5 | 0.00 | 0.00 | 0.00 | 72 | 1012.1 |
| 20260505091803 | 15 | 43 | 12.9 | 27.4 | 0.00 | 0.00 | 0.00 | 71 | 1012.4 |
| 20260505090905 | 15 | 42 | 11.3 | 20.9 | 0.00 | 0.00 | 0.00 | 72 | 1012.4 |
| 20260505090024 | 15 | 42 | 11.3 | 30.6 | 0.00 | 0.00 | 0.00 | 73 | 1012.4 |
| 20260505085403 | 15 | 36 | 9.7 | 19.3 | 0.00 | 0.00 | 0.00 | 76 | 1012.4 |
| 20260505084525 | 13 | 23 | 11.3 | 25.7 | 0.00 | 0.00 | 0.00 | 75 | 1012.5 |
| 20260505083604 | 15 | 41 | 12.9 | 22.5 | 0.00 | 0.00 | 0.00 | 74 | 1012.5 |
| 20260505082704 | 14 | 36 | 11.3 | 20.9 | 0.00 | 0.00 | 0.00 | 76 | 1012.5 |
| 20260505081804 | 13 | 7 | 11.3 | 27.4 | 0.00 | 0.00 | 0.00 | 77 | 1012.5 |
| 20260505080904 | 13 | 24 | 11.3 | 22.5 | 0.00 | 0.00 | 0.00 | 76 | 1012.4 |
| 20260505080025 | 14 | 40 | 9.7 | 20.9 | 0.00 | 0.00 | 0.00 | 77 | 1012.5 |
| 20260505075403 | 13 | 28 | 9.7 | 24.1 | 0.00 | 0.00 | 0.00 | 78 | 1012.5 |
| 20260505074504 | 13 | 27 | 11.3 | 19.3 | 0.00 | 0.00 | 0.00 | 79 | 1012.6 |
| 20260505073603 | 13 | 24 | 8.0 | 24.1 | 0.00 | 0.00 | 0.00 | 80 | 1012.5 |
| 20260505072704 | 13 | 20 | 8.0 | 19.3 | 0.00 | 0.00 | 0.00 | 83 | 1012.4 |
| 20260505071803 | 12 | 27 | 8.0 | 19.3 | 0.00 | 0.00 | 0.00 | 85 | 1012.4 |
| 20260505070924 | 12 | 33 | 6.4 | 17.7 | 0.00 | 0.00 | 0.00 | 86 | 1012.3 |
| 20260505070005 | 12 | 20 | 6.4 | 14.5 | 0.00 | 0.00 | 0.00 | 87 | 1012.4 |
| 20260505065404 | 11 | 23 | 6.4 | 14.5 | 0.00 | 0.00 | 0.00 | 87 | 1012.4 |
| 20260505064504 | 11 | 24 | 6.4 | 17.7 | 0.00 | 0.00 | 0.00 | 88 | 1012.5 |
| 20260505063603 | 11 | 27 | 6.4 | 16.1 | 0.00 | 0.00 | 0.00 | 88 | 1012.5 |
| 20260505062704 | 11 | 36 | 4.8 | 14.5 | 0.00 | 0.00 | 0.00 | 88 | 1012.5 |
| 20260505061804 | 11 | 34 | 6.4 | 12.9 | 0.00 | 0.00 | 0.00 | 88 | 1012.5 |
| 20260505060903 | 11 | 36 | 4.8 | 14.5 | 0.00 | 0.00 | 0.00 | 88 | 1012.4 |
| 20260505060003 | 11 | 37 | 8.0 | 16.1 | 0.00 | 0.00 | 0.00 | 88 | 1012.4 |
| 20260505055404 | 11 | 33 | 6.4 | 16.1 | 0.00 | 0.00 | 0.00 | 88 | 1012.4 |
| 20260505054504 | 11 | 29 | 4.8 | 8.0 | 0.00 | 0.00 | 0.00 | 88 | 1012.4 |
| 20260505053604 | 11 | 33 | 6.4 | 12.9 | 0.00 | 0.00 | 0.00 | 88 | 1012.4 |
| 20260505052704 | 11 | 34 | 6.4 | 14.5 | 0.00 | 0.00 | 0.00 | 88 | 1012.3 |
| 20260505051807 | 11 | 31 | 4.8 | 11.3 | 0.00 | 0.00 | 0.00 | 88 | 1012.2 |
| 20260505050907 | 11 | 15 | 4.8 | 12.9 | 0.00 | 0.00 | 0.00 | 88 | 1012.1 |
| 20260505040907 | 12 | 34 | 3.2 | 6.4 | 0.00 | 0.00 | 0.00 | 88 | 1012.0 |
| 20260505040007 | 12 | 40 | 3.2 | 6.4 | 0.00 | 0.00 | 0.00 | 87 | 1012.2 |
| 20260505035406 | 12 | 38 | 3.2 | 8.0 | 0.00 | 0.00 | 0.00 | 87 | 1012.1 |
| 20260505034506 | 12 | 28 | 3.2 | 6.4 | 0.00 | 0.00 | 0.00 | 87 | 1012.3 |
| 20260505033606 | 12 | 38 | 1.6 | 4.8 | 0.00 | 0.00 | 0.00 | 87 | 1012.4 |
| 20260505032707 | 12 | 54 | 3.2 | 6.4 | 0.00 | 0.00 | 0.00 | 87 | 1012.4 |
| 20260505031805 | 12 | 41 | 4.8 | 8.0 | 0.00 | 0.00 | 0.00 | 87 | 1012.5 |
| 20260505030906 | 12 | 31 | 4.8 | 8.0 | 0.00 | 0.00 | 0.00 | 86 | 1012.5 |
| 20260505030028 | 12 | 44 | 4.8 | 11.3 | 0.00 | 0.00 | 0.00 | 86 | 1012.5 |
| 20260505025406 | 12 | 43 | 4.8 | 9.7 | 0.00 | 0.00 | 0.00 | 86 | 1012.5 |
| 20260505024528 | 12 | 46 | 4.8 | 12.9 | 0.00 | 0.00 | 0.00 | 86 | 1012.6 |
| 20260505023607 | 12 | 37 | 4.8 | 11.3 | 0.00 | 0.00 | 0.00 | 86 | 1012.6 |
| 20260505022706 | 12 | 36 | 6.4 | 14.5 | 0.00 | 0.00 | 0.00 | 86 | 1012.5 |
| 20260505021806 | 12 | 20 | 4.8 | 9.7 | 0.00 | 0.00 | 0.00 | 86 | 1012.6 |
| 20260505020905 | 12 | 27 | 4.8 | 11.3 | 0.00 | 0.00 | 0.00 | 86 | 1012.5 |
| 20260505020006 | 12 | 41 | 4.8 | 9.7 | 0.00 | 0.00 | 0.00 | 86 | 1012.6 |
| 20260505015405 | 12 | 41 | 4.8 | 9.7 | 0.00 | 0.00 | 0.00 | 86 | 1012.7 |
| 20260505014506 | 12 | 36 | 3.2 | 8.0 | 0.00 | 0.00 | 0.00 | 86 | 1012.6 |
| 20260505013605 | 12 | 37 | 3.2 | 6.4 | 0.00 | 0.00 | 0.00 | 86 | 1012.6 |
| 20260505012726 | 12 | 56 | 4.8 | 9.7 | 0.00 | 0.00 | 0.00 | 86 | 1012.8 |
| 20260505011806 | 12 | 62 | 4.8 | 9.7 | 0.00 | 0.00 | 0.00 | 86 | 1013.0 |